Regional Weather Roundup
Issued by NWS Jackson, KY

Home | Current Version | Previous Version | Graphics & Text | Print | Product List | Glossary On
Versions: 1 2 3 4 5 6 7 8 9 10 11 12 13 14 15 16 17 18 19 20 21 22 23 24 25 26 27 28 29 30 31 32 33 34 35 36 37 38 39 40 41 42 43 44 45 46 47 48 49 50
000
ASUS43 KJKL 251710
RWRJKL

EAST KENTUCKY HOURLY WEATHER ROUNDUP
NATIONAL WEATHER SERVICE JACKSON KY
100 PM EDT SAT APR 25 2015

NOTE: "FAIR" INDICATES FEW OR NO CLOUDS BELOW 12,000 FEET WITH
NO SIGNIFICANT WEATHER AND/OR OBSTRUCTIONS TO VISIBILITY.

* THESE REPORTS ARE NOT UNDER NWS QUALITY CONTROL AND MAY NOT
  REPORT WEATHER SUCH AS PRECIPITATION AND FOG.

KYZ079-080-083-085-087-088-110-112-115-119-120-251800
...EASTERN KENTUCKY...

CITY           SKY/WX    TMP DP  RH WIND       PRES   REMARKS
JACKSON        CLOUDY    50  49  96 VRB3      29.69F FOG
LONDON         CLOUDY    65  53  65 S13       29.68F
SOMERSET*      PTSUNNY   63  55  77 S8        29.68F
MONTICELLO*    CLOUDY    68  59  73 S7        29.69F
MIDDLESBORO*   CLOUDY    58  53  85 S8        29.73F
HARLAN APT*    CLOUDY    61  48  63 CALM      29.72F
HAZARD APT*    CLOUDY    55  55 100 CALM      29.69F
BLACK MTN*       N/A     48  48 100 S3          N/A
PIKEVILLE APT* CLOUDY    48  48 100 SE7       29.70F
BIG SANDY*     RAIN      50  49  97 CALM      29.71F
MOREHEAD APT*  LGT RAIN  48  46  93 VRB7      29.72F
$$

KYZ035-036-041-042-044-050-067-078-099-251800
...CENTRAL KENTUCKY...

CITY           SKY/WX    TMP DP  RH WIND       PRES   REMARKS
MT STERLING*   RAIN      50  50 100 SE6       29.69F
FLEMING/MASON* LGT RAIN  48  46  93 E8        29.71F
DANVILLE*      CLOUDY    61  55  82 SW6       29.66F
RICHMOND*      CLOUDY    57  52  82 S5        29.66F
LEXINGTON      CLOUDY    52  50  93 SE8       29.66F
FRANKFORT      CLOUDY    51  50  96 SE7       29.64F
$$

KYZ091>093-OHZ055-061-077-WVZ005-015-034-035-042-251800
...SOUTHERN OHIO/WEST VIRGINIA...

CITY           SKY/WX    TMP DP  RH WIND       PRES   REMARKS
COVINGTON      HVY RAIN  48  46  93 E13       29.68F FOG
COLUMBUS       LGT RAIN  48  32  53 E15G21    29.78F
DAYTON         RAIN      41  37  86 E10       29.76F FOG
WILMINGTON     LGT RAIN  44  36  73 E12G24    29.74F
HUNTINGTON     RAIN      49  48  97 E5        29.72F FOG
CHARLESTON     RAIN      48  45  89 E6        29.75F FOG
PINEVILLE*     LGT RAIN  46  45  96 MISG      29.81F
BECKLEY        LGT RAIN  43  39  86 SE12G23   29.77F
BLUEFIELD      LGT RAIN  42  36  79 VRB5      29.80F
$$

VAZ002-007-008-TNZ017-027-036-066-071-251800
...SOUTHWEST VIRGINIA/EAST TENNESSEE...

CITY           SKY/WX    TMP DP  RH WIND       PRES   REMARKS
WISE*          CLOUDY    54  41  62 S9        29.75F
JONESVILLE*    CLOUDY    55  46  71 CALM      29.76F
ABINGDON*      CLOUDY    55  44  66 E10       29.76F
BRISTOL        PTSUNNY   62  47  57 NE6       29.73F
KNOXVILLE      PTSUNNY   63  54  72 CALM      29.72F
OAK RIDGE      CLOUDY    61  55  81 VRB3      29.75F
CROSSVILLE     PTSUNNY   69  58  67 S10G17    29.70F
NASHVILLE      CLOUDY    73  63  70 S12       29.63F
$$

...KEY TO REMARKS...
VSB - VISIBILITY IN MILES
WCI - WIND CHILL INDEX
HX  - HEAT INDEX

$$



USA.gov is the U.S. government's official web portal to all federal, state and local government web resources and services.